OpenBCM V1.08-5-g2f4a (Linux)

Packet Radio Mailbox

IZ3LSV

[San Dona' di P. JN]

 Login: GUEST





  
I0OJJ  > KEPS     08.02.25 05:49l 336 Lines 15903 Bytes #86 (0) @ AMSAT
BID : ORB25039.1
Read: GUEST
Subj: 2Line Orbital Elements 25039.AMSAT
Path: IZ3LSV<I0OJJ<I0OJJ
Sent: 250208/0345z @:I0OJJ.ITA.EU [Rome] obcm1.08-6-g5b69

>From i0ojj%i0ojj.ita.eu@i0ojj.ampr.org Sat Feb  8 04:45:09 2025
Received: from i0ojj.ampr.org by i0ojj.ampr.org (JNOS2.0p.6) with SMTP
	id AA17020495 ; Sat, 08 Feb 2025 04:45:09 +0100
Message-Id: <ORB25039.1@i0ojj.bbs>
>From: i0ojj@i0ojj.ita.eu
X-JNOS-User-Port: Uplink   (I0OJJ-2 on port hub)  ->  Sending message

From: I0OJJ @ I0OJJ.ITA.EU (Gustavo)
To:   KEPS @ AMSAT
X-Info: This message was generated automatically


QST de W1STR

AMSAT Orbital Elements for Amateur Satellites in TLE Format
>From Orbital Analysis Office
New England Sci-Tech STEM Education Center
Natick, MA February 08, 2025
To all radio amateurs


These element sets describe the orbits of various satellites 
in use by the amateur radio community. For details see:
www.amsat.org/keplerian-elements-formats/

A daily update of element sets is available at:
www.amsat.org/tle/daily-bulletin.txt
or without bulletin text:
www.amsat.org/tle/dailytle.txt


AO-07
1 07530U 74089B   25038.48877265 -.00000011  00000-0  22103-3 0  9992
2 07530 101.9931  41.4540 0012168 356.5459 129.3601 12.53685880298764
UO-11
1 14781U 84021B   25038.84004931  .00003302  00000-0  35967-3 0  9994
2 14781  97.7380   7.7915 0008630  30.1650 330.0063 14.88647792204522
AO-27
1 22825U 93061C   25038.74529638  .00000252  00000-0  11358-3 0  9990
2 22825  98.7556  99.5995 0009447 108.3183 251.9028 14.30724477636567
FO-29
1 24278U 96046B   25037.72242695  .00000037  00000-0  76749-4 0  9999
2 24278  98.5877 307.7102 0349129 300.9455  55.7806 13.53236330406159
NOAA-15
1 25338U 98030A   25038.80211164  .00000370  00000-0  17019-3 0  9993
2 25338  98.5489  66.7902 0010162   2.0759 358.0462 14.26877743391032
GO-32
1 25397U 98043D   25038.45691867  .00000257  00000-0  13139-3 0  9998
2 25397  98.9560  15.1231 0001322 153.0739 207.0508 14.24249451381127
ISS
1 25544U 98067A   25038.79531913  .00014753  00000-0  26690-3 0  9992
2 25544  51.6383 227.9039 0003959 289.4821 164.9185 15.49898550495095
NO-44
1 26931U 01043C   25037.48485797  .00000448  00000-0  19896-3 0  9990
2 26931  67.0503  86.0796 0006088 263.4213  96.6196 14.31610353219481
SO-50
1 27607U 02058C   25038.76344180  .00002659  00000-0  35651-3 0  9993
2 27607  64.5525 216.3691 0041578   5.0863 355.0655 14.80910598191393
CO-55
1 27844U 03031E   25038.83408204  .00000768  00000-0  35485-3 0  9998
2 27844  98.6788  48.6742 0009758 174.5313 185.5974 14.23808718121349
CO-57
1 27848U 03031J   25037.46108470  .00000707  00000-0  33212-3 0  9991
2 27848  98.6815  47.4158 0009245 195.5019 164.5878 14.23169201120851
RS-22
1 27939U 03042A   25038.80709797  .00002584  00000-0  42225-3 0  9991
2 27939  98.3126 205.4451 0012238  39.4756  71.3241 14.71725686142914
NOAA-18
1 28654U 05018A   25038.80531581  .00000358  00000-0  21348-3 0  9995
2 28654  98.8527 119.6194 0015154 114.5389 245.7365 14.13509482 16549
CO-58
1 28895U 05043F   25038.66137871  .00003613  00000-0  60843-3 0  9998
2 28895  98.2277 181.7000 0014469 336.7005  23.3543 14.70110299 29256
CO-65
1 32785U 08021C   25038.87329471  .00009508  00000-0  72790-3 0  9995
2 32785  97.7662   9.4361 0008817 266.0143  94.0073 15.02064117910867
AAUSAT2
1 32788U 08021F   25038.42709062  .00090198  00000-0  18036-2 0  9994
2 32788  97.6050  29.7578 0007512  84.7605 275.4501 15.46432878914376
CO-66
1 32791U 08021J   25037.44327043  .00019058  00000-0  10629-2 0  9990
2 32791  97.7169  15.2591 0003006 195.6503 164.4636 15.13615369911836
RS-30
1 32953U 08025A   25038.79773317  .00000013  00000-0  26567-4 0  9993
2 32953  82.5046 302.9402 0019105 313.9943  45.9561 12.43158356758409
NOAA-19
1 33591U 09005A   25038.79192945  .00000301  00000-0  18493-3 0  9991
2 33591  99.0151 102.7336 0013461 351.7087   8.3860 14.13279529824907
SRMSAT
1 37841U 11058D   25038.70583869  .00000651  00000-0  21031-3 0  9994
2 37841  19.9707 172.0220 0011687 163.8855 224.3074 14.11356301688099
ZACUBE-1
1 39417U 13066B   25038.83028088  .00009166  00000-0  83622-3 0  9991
2 39417  97.7649 356.7798 0048351  98.1830 262.4879 14.94413291606719
Delfi-N3xt
1 39428U 13066N   25038.77159733  .00013200  00000-0  14309-2 0  9997
2 39428  97.8374 318.0229 0091103  41.8713 318.9423 14.85275986601157
GOMX-1
1 39430U 13066Q   25038.41626734  .00004434  00000-0  70475-3 0  9997
2 39430  97.7007 264.5141 0133363 222.8511 136.2241 14.66739935597490
LO-74
1 39440U 13066AA  25038.85266183  .00007285  00000-0  76991-3 0  9990
2 39440  97.8369 344.5068 0063037 219.9921 139.6645 14.88051707604528
AO-73
1 39444U 13066AE  25038.81363637  .00012063  00000-0  97936-3 0  9994
2 39444  97.7482   0.7705 0043492  75.2937 285.3101 14.99029119605913
DTUSAT-2
1 40030U 14033W   25038.84378575  .00012346  00000-0  86817-3 0  9992
2 40030  98.0412   5.1422 0011749 108.3818 251.8686 15.05186575578579
EO-80
1 40032U 14033Y   25037.87371286  .00012332  00000-0  86588-3 0  9998
2 40032  98.0294   3.9533 0010976  62.8248 297.4095 15.05249144577896
XW-2C
1 40906U 15049H   25038.82195859  .00734258  26457-3  11820-2 0  9993
2 40906  97.4429  73.7819 0004114 165.2962 194.8439 16.03577753521215
LILACSAT-2
1 40908U 15049K   25038.86273631  .00015765  00000-0  47124-3 0  9999
2 40908  97.5171  56.5584 0008565 228.7048 131.3458 15.34633389519534
IO-86
1 40931U 15052B   25038.81889873  .00001817  00000-0  15548-3 0  9993
2 40931   6.0001 108.1159 0012838 187.7041 172.2889 14.78568669506492
Horyu-4
1 41340U 16012D   25037.89874876  .00028214  00000-0  96365-3 0  9995
2 41340  30.9973 232.4315 0005982 229.7818 130.2302 15.29096327493940
Lapan A3
1 41603U 16040E   25038.79136348  .00005777  00000-0  21100-3 0  9997
2 41603  97.1397  48.2768 0010934 354.2934   5.8180 15.28424596479170
CAS-2T
1 41847U 16066G   25037.62366389  .00003619  00000-0  52537-3 0  9997
2 41847  98.4337 113.1378 0348275 190.1422 169.2615 14.42871663433284
CAS-4B
1 42759U 17034B   25038.80691568  .00046329  00000-0  89965-3 0  9997
2 42759  43.0126 318.5940 0015930 166.8415 193.2862 15.46767095423644
CAS-4A
1 42761U 17034D   25038.83880724  .00046845  00000-0  89518-3 0  9994
2 42761  43.0163 316.3824 0017362 173.4014 186.7076 15.47199655423663
TechnoSat
1 42829U 17042E   25038.72264413  .00005363  00000-0  43234-3 0  9992
2 42829  97.3901 213.3375 0012249 349.2048  10.8911 15.00238956412442
AO-91
1 43017U 17073E   25037.58311594  .00014850  00000-0  80919-3 0  9994
2 43017  97.5494 271.5611 0181688 225.0302 133.6073 15.01386801390732
S-Net D
1 43186U 18014G   25037.71093023  .00008818  00000-0  55131-3 0  9991
2 43186  97.5739 301.9710 0007710 292.5695  67.4718 15.09646290383827
S-Net B
1 43187U 18014H   25037.71490212  .00008880  00000-0  55533-3 0  9998
2 43187  97.5746 301.9404 0008341 286.2396  73.7915 15.09632436383821
S-Net A
1 43188U 18014J   25037.71169871  .00008849  00000-0  55316-3 0  9997
2 43188  97.5752 302.0720 0008236 287.2333  72.7995 15.09650758383821
S-Net C
1 43189U 18014K   25037.71702866  .00009102  00000-0  56896-3 0  9992
2 43189  97.5768 302.0706 0009720 277.4478  82.5646 15.09631217382373
Ten-Koh
1 43677U 18084G   25038.72640006  .00005418  00000-0  44812-3 0  9991
2 43677  98.0827 206.1689 0011504 313.9294  46.0977 14.99310041341976
PO-101
1 43678U 18084H   25038.80738952  .00003305  00000-0  29061-3 0  9991
2 43678  98.0909 210.4263 0008046 337.4461  22.6405 14.97252353342154
QO-100
1 43700U 18090A   25038.76063122  .00000139  00000-0  00000+0 0  9999
2 43700   0.0112 108.3483 0001288 210.5695 118.7484  1.00270915 22961
MinXSS-2
1 43758U 18099A   25037.73274635  .00022589  00000-0  10535-2 0  9990
2 43758  97.5208 103.7652 0012686 224.6839 135.3374 15.19801178338271
AO-95
1 43770U 18099N   25037.71419033  .00015025  00000-0  84012-3 0  9994
2 43770  97.5120  97.3411 0010556 279.7534  80.2505 15.13527952337942
RANGE-A
1 43773U 18099R   25037.72908048  .00007860  00000-0  52684-3 0  9995
2 43773  97.4695  89.7233 0010231 250.9459 109.0661 15.07093527337701
MOVE-II
1 43780U 18099Y   25038.77537068  .00066415  00000-0  16077-2 0  9995
2 43780  97.4850 108.8213 0003934 226.7272 133.3646 15.40867198338860
SNUSat 2
1 43782U 18099AA  25038.73751358  .00010387  00000-0  61563-3 0  9991
2 43782  97.4807  96.0402 0012112 209.4750 150.5798 15.11506657338079
SnugLite
1 43784U 18099AC  25037.70343592  .00015202  00000-0  84404-3 0  9996
2 43784  97.4620  94.3926 0003070 207.5961 152.5108 15.13820875338027
ITASat 1
1 43786U 18099AE  25037.69680933  .00011041  00000-0  67667-3 0  9998
2 43786  97.4776  94.8550 0013973 270.4142  89.5487 15.10253406337892
EAGLET 1
1 43790U 18099AJ  25037.68196440  .00007125  00000-0  47628-3 0  9990
2 43790  97.4973  95.1331 0011089 248.2374 111.7674 15.07222386337540
ESEO
1 43792U 18099AL  25037.70829522  .00002861  00000-0  22399-3 0  9999
2 43792  97.4632  89.9970 0009822 207.2491 152.8220 15.01751562337372
CSIM
1 43793U 18099AM  25038.76186225  .00070075  00000-0  16955-2 0  9995
2 43793  97.5031 110.7683 0007372 204.7115 155.3779 15.40845733338706
JO-97
1 43803U 18099AX  25037.71272695  .00017865  00000-0  92293-3 0  9996
2 43803  97.4867  98.1405 0007619 207.5673 152.5157 15.16324768338127
Suomi 100
1 43804U 18099AY  25036.69617947  .00015823  00000-0  85968-3 0  9999
2 43804  97.4936  96.7237 0012673 214.3351 145.7063 15.14520828337927
ISAT
1 43879U 18111D   25037.72594992  .00026429  00000-0  11320-2 0  9999
2 43879  97.6040 309.9852 0007778 269.7161  90.3183 15.22732020334958
UWE-4
1 43880U 18111E   25038.68872397  .00020968  00000-0  96822-3 0  9998
2 43880  97.5980 310.1625 0011299 278.9187  81.0768 15.20177825333079
Sparrow
1 43881U 18111F   25037.72729499  .00027925  00000-0  11658-2 0  9990
2 43881  97.6159 312.4440 0006414 324.2023  35.8783 15.23598829335032
